Regional Weather Roundup
Issued by NWS

Home | Current Version | Previous Version | Graphics & Text | Print | Product List | Glossary On
Versions: 1 2 3 4 5 6 7 8 9 10 11 12 13 14 15 16 17 18 19 20 21 22 23 24 25 26 27 28 29 30 31 32 33 34 35 36 37 38 39 40 41 42 43 44 45 46 47 48 49 50
286
ASUS43 KIND 172000
RWRIN

WEATHER ROUNDUP FOR INDIANA
NATIONAL WEATHER SERVICE INDIANAPOLIS IN
400 PM EDT TUE OCT 17 2017

NOTE: "FAIR" INDICATES FEW OR NO CLOUDS BELOW 12,000 FEET WITH NO
SIGNIFICANT WEATHER AND/OR OBSTRUCTIONS TO VISIBILITY.

* - STATION DOES NOT REPORT WEATHER SUCH AS PRECIPITATION OR FOG.

+ - STATION NOT QUALITY CONTROLLED BY THE NATIONAL WEATHER SERVICE.
    USE DATA WITH CAUTION...ESPECIALLY DEWPOINT AND RELATIVE
    HUMIDITY OBSERVATIONS.

INZ001>003-010>013-019-020-172100-
NORTHWEST INDIANA

CITY           SKY/WX    TMP DP  RH WIND       PRES   REMARKS
GARY /AIRPORT/ MOSUNNY   72  36  26 SW12G23   30.16F
KNOX *+        SUNNY     70  39  32 SW15G25   30.19F
MICHIGAN CITY+ SUNNY     68  43  40 SW12G18   30.17F
MONTICELLO +   SUNNY     68  37  32 SW12G17   30.21F
RENSSELAER +   SUNNY     70  21  16 SW16      30.20F

$$

LMZ046-743>745-172100-
SOUTHERN LAKE MICHIGAN

STATION/POSITION TIME  TEMP    WIND        PRES    WAVE
                       AIR SEA DIR/SP/G            HT
                 (UTC) (F)     (DEG/KT/KT) (MB)    (FT)
BURNS HARBOR     1940   68     210/ 14/ 23 1021.7F
MICHIGAN CITY    1930   66     200/ 21/ 24   N/A
5NW MICH CITY    1940   63 58  230/ 12/ 16   N/A     2

$$

INZ004-005-014>016-021>024-172100-
NORTH CENTRAL INDIANA

CITY           SKY/WX    TMP DP  RH WIND       PRES   REMARKS
ELKHART        SUNNY     68  41  37 SW14G23   30.18F
GOSHEN         SUNNY     68  40  35 SW18      30.19F
PERU/GRISSOM   SUNNY     67  40  36 SW15      30.22F
SOUTH BEND     SUNNY     68  41  37 SW20      30.18F
WARSAW +       SUNNY     66  41  39 SW12G17   30.21F

$$

INZ006>009-017-018-025>027-172100-
NORTHEAST INDIANA

CITY           SKY/WX    TMP DP  RH WIND       PRES   REMARKS
AUBURN +       SUNNY     68  36  30 SW6G16    30.22F
FORT WAYNE     MOSUNNY   67  37  33 SW16      30.23S
KENDALLVILLE + SUNNY     67  40  37 SW13G22   30.21F

$$

INZ028-029-035-036-043>045-051>053-172100-
WEST CENTRAL INDIANA

CITY           SKY/WX    TMP DP  RH WIND       PRES   REMARKS
GREENCASTLE +  SUNNY     64  37  36 S8        30.26F
LAFAYETTE      NOT AVBL
TERRE HAUTE    SUNNY     66  39  37 S9        30.25F

$$

INZ030>032-037>040-046>048-054>057-064-065-172100-
CENTRAL INDIANA

CITY           SKY/WX    TMP DP  RH WIND       PRES   REMARKS
COLUMBUS       SUNNY     66  30  26 SW12      30.27F
GREENWOOD *+   SUNNY     71  40  33 SW7       30.26F
INDIANAPOLIS   MOSUNNY   66  39  37 SW10      30.25R
-EAGLE CREEK   SUNNY     66  37  34 SW7G20    30.25F
KOKOMO +       SUNNY     67  40  37 SW10G21   30.24F
MT COMFORT *+  SUNNY     66  45  45 SW10      30.26S
SHELBYVILLE    SUNNY     67  37  33 SW10      30.25F

$$

INZ033-034-041-042-049-050-058-059-172100-
EAST CENTRAL INDIANA

CITY           SKY/WX    TMP DP  RH WIND       PRES   REMARKS
MUNCIE         SUNNY     68  37  32 W10       30.24F
RICHMOND +     SUNNY     63  36  36 SW8G16    30.27F

$$

INZ060-061-067>069-081>083-085>088-172100-
SOUTHWEST INDIANA

CITY           SKY/WX    TMP DP  RH WIND       PRES   REMARKS
EVANSVILLE     SUNNY     65  39  38 VRB7      30.27F
HUNTINGBURG +  CLOUDY    64  41  42 S7        30.28F

$$

INZ062-063-066-070>080-084-089>092-172100-
SOUTH CENTRAL AND SOUTHEAST INDIANA

CITY           SKY/WX    TMP DP  RH WIND       PRES   REMARKS
BLOOMINGTON    SUNNY     67  37  33 SW10      30.26F
MADISON *+     SUNNY     68  36  30 SW7       30.29F
SEYMOUR +      SUNNY     68  41  37 S6        30.27F

$$





USA.gov is the U.S. government's official web portal to all federal, state and local government web resources and services.